| time (UTC) | temp C | wind direction | speed KPH | gust KPH | rain 1hr cm | rain 24hr cm | rain mn cm | humidity % | barometer mb |
| 20260506010010 | 7 | 65 | 0.0 | 3.2 | 0.00 | 0.00 | 0.00 | 83 | 1015.6 |
| 20260506004536 | 7 | 51 | 0.0 | 1.6 | 0.00 | 0.00 | 0.00 | 84 | 1015.7 |
| 20260506003008 | 7 | 43 | 0.0 | 1.6 | 0.00 | 0.00 | 0.00 | 84 | 1015.7 |
| 20260506001522 | 7 | 72 | 0.0 | 3.2 | 0.00 | 0.00 | 0.00 | 84 | 1015.7 |
| 20260506000017 | 7 | 52 | 1.6 | 4.8 | 0.00 | 0.00 | 0.00 | 85 | 1015.6 |
| 20260505234514 | 7 | 51 | 1.6 | 3.2 | 0.00 | 0.00 | 0.00 | 85 | 1015.6 |
| 20260505233024 | 8 | 51 | 0.0 | 3.2 | 0.00 | 0.00 | 0.00 | 85 | 1015.5 |
| 20260505231536 | 8 | 58 | 0.0 | 9.7 | 0.00 | 0.00 | 0.00 | 85 | 1015.6 |
| 20260505230028 | 8 | 46 | 1.6 | 3.2 | 0.00 | 0.00 | 0.00 | 85 | 1015.5 |
| 20260505224505 | 7 | 60 | 1.6 | 3.2 | 0.00 | 0.00 | 0.00 | 86 | 1015.4 |
| 20260505223010 | 7 | 333 | 0.0 | 1.6 | 0.00 | 0.00 | 0.00 | 86 | 1015.5 |
| 20260505221519 | 7 | 306 | 0.0 | 0.0 | 0.00 | 0.00 | 0.00 | 86 | 1015.5 |
| 20260505220022 | 7 | 306 | 0.0 | 0.0 | 0.00 | 0.00 | 0.00 | 85 | 1015.5 |
| 20260505214516 | 7 | 306 | 0.0 | 0.0 | 0.00 | 0.00 | 0.00 | 85 | 1015.5 |
| 20260505213013 | 7 | 306 | 0.0 | 0.0 | 0.00 | 0.00 | 0.00 | 84 | 1015.5 |
| 20260505211505 | 7 | 306 | 0.0 | 0.0 | 0.00 | 0.00 | 0.00 | 84 | 1015.4 |
| 20260505210003 | 7 | 352 | 0.0 | 1.6 | 0.00 | 0.00 | 0.00 | 83 | 1015.3 |
| 20260505204519 | 7 | 12 | 0.0 | 1.6 | 0.00 | 0.00 | 0.00 | 83 | 1015.3 |
| 20260505203016 | 7 | 12 | 0.0 | 1.6 | 0.00 | 0.00 | 0.00 | 82 | 1015.3 |
| 20260505201504 | 7 | 1 | 0.0 | 0.0 | 0.00 | 0.00 | 0.00 | 81 | 1015.4 |
| 20260505200005 | 8 | 359 | 0.0 | 0.0 | 0.00 | 0.00 | 0.00 | 79 | 1015.2 |
| 20260505194516 | 8 | 20 | 0.0 | 1.6 | 0.00 | 0.00 | 0.00 | 77 | 1015.1 |
| 20260505193003 | 9 | 10 | 0.0 | 3.2 | 0.00 | 0.00 | 0.00 | 75 | 1014.9 |
| 20260505191523 | 10 | 19 | 0.0 | 4.8 | 0.00 | 0.00 | 0.00 | 73 | 1014.7 |
| 20260505190018 | 11 | 319 | 1.6 | 6.4 | 0.00 | 0.00 | 0.00 | 71 | 1014.6 |
| 20260505184508 | 11 | 19 | 0.0 | 3.2 | 0.00 | 0.00 | 0.00 | 71 | 1014.7 |
| 20260505183017 | 11 | 309 | 0.0 | 4.8 | 0.00 | 0.00 | 0.00 | 72 | 1014.6 |
| 20260505181510 | 11 | 291 | 0.0 | 3.2 | 0.00 | 0.00 | 0.00 | 75 | 1014.6 |
| 20260505180007 | 11 | 310 | 1.6 | 4.8 | 0.00 | 0.00 | 0.00 | 76 | 1014.6 |
| 20260505174526 | 10 | 56 | 0.0 | 1.6 | 0.00 | 0.00 | 0.00 | 75 | 1014.7 |
| 20260505173008 | 10 | 52 | 1.6 | 1.6 | 0.00 | 0.00 | 0.00 | 76 | 1014.7 |
| 20260505171512 | 10 | 54 | 1.6 | 4.8 | 0.00 | 0.00 | 0.00 | 76 | 1014.8 |
| 20260505170016 | 10 | 62 | 0.0 | 4.8 | 0.00 | 0.00 | 0.00 | 78 | 1014.8 |
| 20260505164511 | 10 | 45 | 0.0 | 3.2 | 0.00 | 0.00 | 0.00 | 78 | 1014.9 |
| 20260505163009 | 10 | 53 | 3.2 | 4.8 | 0.00 | 0.00 | 0.00 | 77 | 1015.0 |
| 20260505161511 | 10 | 55 | 3.2 | 6.4 | 0.00 | 0.00 | 0.00 | 76 | 1014.9 |
| 20260505153018 | 11 | 65 | 0.0 | 3.2 | 0.00 | 0.00 | 0.00 | 72 | 1014.9 |
| 20260505151513 | 11 | 21 | 0.0 | 4.8 | 0.00 | 0.00 | 0.00 | 75 | 1014.9 |
| 20260505124504 | 10 | 302 | 1.6 | 6.4 | 0.00 | 0.00 | 0.00 | 73 | 1015.3 |
| 20260505123006 | 10 | 342 | 0.0 | 6.4 | 0.00 | 0.00 | 0.00 | 73 | 1015.3 |
| 20260505121520 | 11 | 22 | 3.2 | 11.3 | 0.00 | 0.00 | 0.00 | 71 | 1015.4 |
| 20260505120003 | 11 | 21 | 1.6 | 6.4 | 0.00 | 0.00 | 0.00 | 70 | 1015.2 |
| 20260505114508 | 11 | 18 | 3.2 | 6.4 | 0.00 | 0.00 | 0.00 | 68 | 1015.2 |
| 20260505113007 | 11 | 23 | 1.6 | 4.8 | 0.00 | 0.00 | 0.00 | 74 | 1015.3 |
| 20260505111509 | 10 | 356 | 0.0 | 3.2 | 0.00 | 0.00 | 0.00 | 77 | 1015.5 |
| 20260505101514 | 10 | 3 | 1.6 | 6.4 | 0.00 | 0.00 | 0.00 | 76 | 1015.6 |
| 20260505100012 | 10 | 23 | 3.2 | 9.7 | 0.00 | 0.00 | 0.00 | 80 | 1015.6 |
| 20260505094511 | 10 | 3 | 1.6 | 3.2 | 0.00 | 0.00 | 0.00 | 82 | 1015.7 |
| 20260505093004 | 10 | 15 | 0.0 | 3.2 | 0.00 | 0.00 | 0.00 | 82 | 1015.7 |
| 20260505091512 | 10 | 22 | 3.2 | 4.8 | 0.00 | 0.00 | 0.00 | 80 | 1015.7 |
| 20260505090014 | 10 | 15 | 0.0 | 6.4 | 0.00 | 0.00 | 0.00 | 79 | 1015.6 |
| 20260505084534 | 10 | 349 | 3.2 | 8.0 | 0.00 | 0.00 | 0.00 | 80 | 1015.8 |
| 20260505083012 | 10 | 347 | 0.0 | 6.4 | 0.00 | 0.00 | 0.00 | 81 | 1015.8 |
| 20260505081516 | 10 | 6 | 0.0 | 4.8 | 0.00 | 0.00 | 0.00 | 80 | 1015.9 |
| 20260505080009 | 10 | 300 | 1.6 | 6.4 | 0.00 | 0.00 | 0.00 | 78 | 1015.8 |
| 20260505074526 | 10 | 1 | 3.2 | 6.4 | 0.00 | 0.00 | 0.00 | 77 | 1015.7 |
| 20260505073022 | 10 | 19 | 0.0 | 4.8 | 0.00 | 0.00 | 0.00 | 80 | 1015.6 |
| 20260505071520 | 9 | 355 | 0.0 | 6.4 | 0.00 | 0.00 | 0.00 | 85 | 1015.7 |
| 20260505070018 | 8 | 241 | 0.0 | 3.2 | 0.00 | 0.00 | 0.00 | 86 | 1015.7 |
| 20260505064517 | 7 | 264 | 0.0 | 1.6 | 0.00 | 0.00 | 0.00 | 87 | 1015.8 |
| 20260505063017 | 6 | 258 | 0.0 | 1.6 | 0.00 | 0.00 | 0.00 | 89 | 1015.9 |
| 20260505061525 | 6 | 340 | 0.0 | 0.0 | 0.00 | 0.00 | 0.00 | 89 | 1015.8 |
| 20260505060032 | 6 | 340 | 0.0 | 0.0 | 0.00 | 0.00 | 0.00 | 89 | 1015.8 |
| 20260505054523 | 6 | 340 | 0.0 | 0.0 | 0.00 | 0.00 | 0.00 | 89 | 1015.8 |
| 20260505053021 | 5 | 340 | 0.0 | 0.0 | 0.00 | 0.00 | 0.00 | 89 | 1015.8 |
| 20260505051518 | 4 | 340 | 0.0 | 0.0 | 0.00 | 0.00 | 0.00 | 89 | 1015.9 |
| 20260505041507 | 4 | 340 | 0.0 | 0.0 | 0.00 | 0.00 | 0.00 | 89 | 1015.6 |
| 20260505040005 | 4 | 340 | 0.0 | 0.0 | 0.00 | 0.00 | 0.00 | 89 | 1015.5 |
| 20260505034524 | 5 | 340 | 0.0 | 0.0 | 0.00 | 0.00 | 0.00 | 89 | 1015.5 |
| 20260505033008 | 5 | 340 | 0.0 | 0.0 | 0.00 | 0.00 | 0.00 | 89 | 1015.6 |
| 20260505031512 | 5 | 340 | 0.0 | 0.0 | 0.00 | 0.00 | 0.00 | 89 | 1015.6 |
| 20260505030008 | 6 | 340 | 0.0 | 0.0 | 0.00 | 0.00 | 0.00 | 89 | 1015.6 |
| 20260505024507 | 6 | 340 | 0.0 | 0.0 | 0.00 | 0.00 | 0.00 | 89 | 1015.6 |
| 20260505023005 | 7 | 340 | 0.0 | 0.0 | 0.00 | 0.00 | 0.00 | 89 | 1015.7 |
| 20260505021508 | 7 | 340 | 0.0 | 0.0 | 0.00 | 0.00 | 0.00 | 89 | 1015.6 |
| 20260505020013 | 7 | 340 | 0.0 | 0.0 | 0.00 | 0.00 | 0.00 | 89 | 1015.8 |
| 20260505014513 | 7 | 340 | 0.0 | 0.0 | 0.00 | 0.00 | 0.00 | 89 | 1015.9 |
| 20260505013008 | 7 | 340 | 0.0 | 0.0 | 0.00 | 0.00 | 0.00 | 89 | 1016.1 |
| 20260505011507 | 7 | 340 | 0.0 | 0.0 | 0.00 | 0.00 | 0.00 | 89 | 1016.2 |